This demonstration page uses our WeatherBlox Daily Observations layout. Learn more.

Left ArrowRight Arrow

Hourly Observations for December 27, 2017

Temp ( °F °C ) Dew Point ( °F °C ) Humidity (%) Winds ( mph kmh ) Pressure ( in mb ) Visibility ( mi km ) Precip ( " mm )
12:53 am 00:53 Cloudy 28 -2.2 25 -3.9 88 88 NNE 14 22 30.35 1028 10 16 0.00 0.00
1:53 am 01:53 Cloudy 27 -2.8 25 -3.9 92 92 NE 12 19 30.37 1028 9 14 0.00 0.00
2:29 am 02:29 Cloudy with Mist and Fog 26 -3.3 25 -3.9 96 96 NNE 12 19 30.53 1034 3 4 0.00 0.00
2:53 am 02:53 Cloudy with Mist and Fog 26 -3.3 25 -3.9 96 96 NE 12 19 30.38 1029 3 5 0.00 0.00
3:53 am 03:53 Cloudy with Mist and Fog 26 -3.3 25 -3.9 96 96 NE 9 15 30.40 1030 3 5 0.00 0.00
4:53 am 04:53 Cloudy with Mist and Fog 26 -3.3 25 -3.9 96 96 NE 8 13 30.41 1030 4 6 0.00 0.00
5:53 am 05:53 Cloudy with Mist and Fog 26 -3.3 24 -4.4 92 92 NE 12 19 30.44 1031 4 6 0.00 0.00
6:53 am 06:53 Cloudy with Mist and Fog 26 -3.3 24 -4.4 92 92 NE 7 11 30.47 1032 4 6 0.00 0.00
7:53 am 07:53 Cloudy with Mist and Fog 26 -3.3 24 -4.4 92 92 ENE 7 11 30.50 1033 5 8 0.00 0.00
8:53 am 08:53 Cloudy 26 -3.3 24 -4.4 92 92 ENE 7 11 30.52 1034 7 11 0.00 0.00
9:53 am 09:53 Cloudy with Mist and Fog 26 -3.3 24 -4.4 92 92 NE 7 11 30.54 1034 5 8 0.00 0.00
10:53 am 10:53 Cloudy with Mist and Fog 27 -2.8 25 -3.9 92 92 E 6 9 30.55 1034 6 10 0.00 0.00
11:53 am 11:53 Cloudy with Mist and Fog 27 -2.8 25 -3.9 92 92 Calm 30.54 1034 4 6 0.00 0.00
12:53 pm 12:53 Cloudy with Mist and Fog 28 -2.2 26 -3.3 92 92 SE 3 6 30.49 1033 5 8 0.00 0.00
1:03 pm 13:03 Cloudy 28 -2.2 27 -2.8 96 96 Calm 30.59 1036 7 11 0.00 0.00
1:53 pm 13:53 Cloudy 28 -2.2 27 -2.8 96 96 Calm 30.44 1031 10 16 0.00 0.00
2:16 pm 14:16 Cloudy 29 -1.7 27 -2.8 92 92 Calm 30.50 1033 10 16 0.00 0.00
2:53 pm 14:53 Cloudy 29 -1.7 27 -2.8 92 92 WSW 3 6 30.42 1030 10 16 0.00 0.00
3:53 pm 15:53 Cloudy 30 -1.1 26 -3.3 85 85 Calm 30.40 1029 10 16 0.00 0.00
4:53 pm 16:53 Cloudy 30 -1.1 27 -2.8 88 88 SSW 6 9 30.39 1029 10 16 0.00 0.00
5:53 pm 17:53 Cloudy 29 -1.7 27 -2.8 92 92 SSE 5 7 30.38 1029 10 16 0.00 0.00
6:53 pm 18:53 Cloudy 30 -1.1 27 -2.8 88 88 Calm 30.37 1029 10 16 0.00 0.00
7:24 pm 19:24 Cloudy 30 -1.1 27 -2.8 88 88 Calm 30.45 1031 10 16 0.00 0.00
7:53 pm 19:53 Cloudy 30 -1.1 27 -2.8 88 88 S 3 6 30.36 1028 10 16 0.00 0.00
8:53 pm 20:53 Cloudy 30 -1.1 27 -2.8 88 88 S 5 7 30.35 1028 10 16 0.00 0.00
9:42 pm 21:42 Cloudy 30 -1.1 27 -2.8 88 88 SSE 5 7 30.45 1031 10 16 0.00 0.00
9:53 pm 21:53 Cloudy 30 -1.1 27 -2.8 88 88 SSE 6 9 30.36 1028 10 16 0.00 0.00
10:53 pm 22:53 Cloudy 30 -1.1 28 -2.2 92 92 SE 8 13 30.35 1028 10 16 0.00 0.00
11:53 pm 23:53 Cloudy 30 -1.1 27 -2.8 88 88 ESE 6 9 30.36 1028 10 16 0.00 0.00

Powered by AerisWeather